Index of /20260502/WXO-DD/model_rdps/10km/00/049
Name Last modified Size Description
Parent Directory -
20260502T00Z_MSC_RDPS_AbsoluteVorticity_IsbL-0250_RLatLon0.09_PT049H.grib2 2026-05-02 02:55 622K
20260502T00Z_MSC_RDPS_AbsoluteVorticity_IsbL-0500_RLatLon0.09_PT049H.grib2 2026-05-02 02:55 571K
20260502T00Z_MSC_RDPS_AbsoluteVorticity_IsbL-0700_RLatLon0.09_PT049H.grib2 2026-05-02 02:55 618K
20260502T00Z_MSC_RDPS_AbsoluteVorticity_IsbL-0850_RLatLon0.09_PT049H.grib2 2026-05-02 02:55 779K
20260502T00Z_MSC_RDPS_AirTemp_AGL-120m_RLatLon0.09_PT049H.grib2 2026-05-02 02:55 384K
20260502T00Z_MSC_RDPS_AirTemp_AGL-2m_RLatLon0.09_PT049H.grib2 2026-05-02 02:55 623K
20260502T00Z_MSC_RDPS_AirTemp_AGL-40m_RLatLon0.09_PT049H.grib2 2026-05-02 02:55 396K
20260502T00Z_MSC_RDPS_AirTemp_AGL-80m_RLatLon0.09_PT049H.grib2 2026-05-02 02:55 388K
20260502T00Z_MSC_RDPS_AirTemp_IsbL-0001_RLatLon0.09_PT049H.grib2 2026-05-02 02:55 305K
20260502T00Z_MSC_RDPS_AirTemp_IsbL-0005_RLatLon0.09_PT049H.grib2 2026-05-02 02:55 290K
20260502T00Z_MSC_RDPS_AirTemp_IsbL-0010_RLatLon0.09_PT049H.grib2 2026-05-02 02:55 301K
20260502T00Z_MSC_RDPS_AirTemp_IsbL-0020_RLatLon0.09_PT049H.grib2 2026-05-02 02:55 317K
20260502T00Z_MSC_RDPS_AirTemp_IsbL-0030_RLatLon0.09_PT049H.grib2 2026-05-02 02:55 341K
20260502T00Z_MSC_RDPS_AirTemp_IsbL-0050_RLatLon0.09_PT049H.grib2 2026-05-02 02:55 315K
20260502T00Z_MSC_RDPS_AirTemp_IsbL-0100_RLatLon0.09_PT049H.grib2 2026-05-02 02:55 425K
20260502T00Z_MSC_RDPS_AirTemp_IsbL-0150_RLatLon0.09_PT049H.grib2 2026-05-02 02:55 418K
20260502T00Z_MSC_RDPS_AirTemp_IsbL-0175_RLatLon0.09_PT049H.grib2 2026-05-02 02:55 408K
20260502T00Z_MSC_RDPS_AirTemp_IsbL-0200_RLatLon0.09_PT049H.grib2 2026-05-02 02:55 415K
20260502T00Z_MSC_RDPS_AirTemp_IsbL-0225_RLatLon0.09_PT049H.grib2 2026-05-02 02:55 420K
20260502T00Z_MSC_RDPS_AirTemp_IsbL-0250_RLatLon0.09_PT049H.grib2 2026-05-02 02:55 426K
20260502T00Z_MSC_RDPS_AirTemp_IsbL-0275_RLatLon0.09_PT049H.grib2 2026-05-02 02:55 404K
20260502T00Z_MSC_RDPS_AirTemp_IsbL-0300_RLatLon0.09_PT049H.grib2 2026-05-02 02:55 408K
20260502T00Z_MSC_RDPS_AirTemp_IsbL-0350_RLatLon0.09_PT049H.grib2 2026-05-02 02:55 423K
20260502T00Z_MSC_RDPS_AirTemp_IsbL-0400_RLatLon0.09_PT049H.grib2 2026-05-02 02:55 427K
20260502T00Z_MSC_RDPS_AirTemp_IsbL-0450_RLatLon0.09_PT049H.grib2 2026-05-02 02:55 402K
20260502T00Z_MSC_RDPS_AirTemp_IsbL-0500_RLatLon0.09_PT049H.grib2 2026-05-02 02:55 413K
20260502T00Z_MSC_RDPS_AirTemp_IsbL-0550_RLatLon0.09_PT049H.grib2 2026-05-02 02:55 427K
20260502T00Z_MSC_RDPS_AirTemp_IsbL-0600_RLatLon0.09_PT049H.grib2 2026-05-02 02:55 445K
20260502T00Z_MSC_RDPS_AirTemp_IsbL-0650_RLatLon0.09_PT049H.grib2 2026-05-02 02:55 458K
20260502T00Z_MSC_RDPS_AirTemp_IsbL-0700_RLatLon0.09_PT049H.grib2 2026-05-02 02:55 375K
20260502T00Z_MSC_RDPS_AirTemp_IsbL-0750_RLatLon0.09_PT049H.grib2 2026-05-02 02:55 404K
20260502T00Z_MSC_RDPS_AirTemp_IsbL-0800_RLatLon0.09_PT049H.grib2 2026-05-02 02:55 446K
20260502T00Z_MSC_RDPS_AirTemp_IsbL-0850_RLatLon0.09_PT049H.grib2 2026-05-02 02:55 493K
20260502T00Z_MSC_RDPS_AirTemp_IsbL-0875_RLatLon0.09_PT049H.grib2 2026-05-02 02:55 513K
20260502T00Z_MSC_RDPS_AirTemp_IsbL-0900_RLatLon0.09_PT049H.grib2 2026-05-02 02:55 523K
20260502T00Z_MSC_RDPS_AirTemp_IsbL-0925_RLatLon0.09_PT049H.grib2 2026-05-02 02:55 517K
20260502T00Z_MSC_RDPS_AirTemp_IsbL-0950_RLatLon0.09_PT049H.grib2 2026-05-02 02:55 515K
20260502T00Z_MSC_RDPS_AirTemp_IsbL-0970_RLatLon0.09_PT049H.grib2 2026-05-02 02:55 510K
20260502T00Z_MSC_RDPS_AirTemp_IsbL-0985_RLatLon0.09_PT049H.grib2 2026-05-02 02:55 502K
20260502T00Z_MSC_RDPS_AirTemp_IsbL-1000_RLatLon0.09_PT049H.grib2 2026-05-02 02:55 488K
20260502T00Z_MSC_RDPS_AirTemp_IsbL-1015_RLatLon0.09_PT049H.grib2 2026-05-02 02:55 487K
20260502T00Z_MSC_RDPS_Albedo_Sfc_RLatLon0.09_PT049H.grib2 2026-05-02 02:55 158K
20260502T00Z_MSC_RDPS_CAPE_Sfc_RLatLon0.09_PT049H.grib2 2026-05-02 02:55 1.7M
20260502T00Z_MSC_RDPS_CIN_Sfc_RLatLon0.09_PT049H.grib2 2026-05-02 02:55 1.2M
20260502T00Z_MSC_RDPS_CloudWater_EAtm_RLatLon0.09_PT049H.grib2 2026-05-02 02:55 223K
20260502T00Z_MSC_RDPS_ConvectivePrecip-Accum_Sfc_RLatLon0.09_PT049H.grib2 2026-05-02 02:55 1.1M
20260502T00Z_MSC_RDPS_DewPointDepression_AGL-2m_RLatLon0.09_PT049H.grib2 2026-05-02 02:55 412K
20260502T00Z_MSC_RDPS_DewPointDepression_IsbL-0001_RLatLon0.09_PT049H.grib2 2026-05-02 02:55 193
20260502T00Z_MSC_RDPS_DewPointDepression_IsbL-0005_RLatLon0.09_PT049H.grib2 2026-05-02 02:55 193
20260502T00Z_MSC_RDPS_DewPointDepression_IsbL-0010_RLatLon0.09_PT049H.grib2 2026-05-02 02:55 193
20260502T00Z_MSC_RDPS_DewPointDepression_IsbL-0020_RLatLon0.09_PT049H.grib2 2026-05-02 02:55 193
20260502T00Z_MSC_RDPS_DewPointDepression_IsbL-0030_RLatLon0.09_PT049H.grib2 2026-05-02 02:55 193
20260502T00Z_MSC_RDPS_DewPointDepression_IsbL-0050_RLatLon0.09_PT049H.grib2 2026-05-02 02:55 74K
20260502T00Z_MSC_RDPS_DewPointDepression_IsbL-0100_RLatLon0.09_PT049H.grib2 2026-05-02 02:55 117K
20260502T00Z_MSC_RDPS_DewPointDepression_IsbL-0150_RLatLon0.09_PT049H.grib2 2026-05-02 02:55 144K
20260502T00Z_MSC_RDPS_DewPointDepression_IsbL-0175_RLatLon0.09_PT049H.grib2 2026-05-02 02:55 180K
20260502T00Z_MSC_RDPS_DewPointDepression_IsbL-0200_RLatLon0.09_PT049H.grib2 2026-05-02 02:55 222K
20260502T00Z_MSC_RDPS_DewPointDepression_IsbL-0225_RLatLon0.09_PT049H.grib2 2026-05-02 02:55 265K
20260502T00Z_MSC_RDPS_DewPointDepression_IsbL-0250_RLatLon0.09_PT049H.grib2 2026-05-02 02:55 301K
20260502T00Z_MSC_RDPS_DewPointDepression_IsbL-0275_RLatLon0.09_PT049H.grib2 2026-05-02 02:55 310K
20260502T00Z_MSC_RDPS_DewPointDepression_IsbL-0300_RLatLon0.09_PT049H.grib2 2026-05-02 02:55 328K
20260502T00Z_MSC_RDPS_DewPointDepression_IsbL-0350_RLatLon0.09_PT049H.grib2 2026-05-02 02:55 334K
20260502T00Z_MSC_RDPS_DewPointDepression_IsbL-0400_RLatLon0.09_PT049H.grib2 2026-05-02 02:55 342K
20260502T00Z_MSC_RDPS_DewPointDepression_IsbL-0450_RLatLon0.09_PT049H.grib2 2026-05-02 02:55 346K
20260502T00Z_MSC_RDPS_DewPointDepression_IsbL-0500_RLatLon0.09_PT049H.grib2 2026-05-02 02:55 349K
20260502T00Z_MSC_RDPS_DewPointDepression_IsbL-0550_RLatLon0.09_PT049H.grib2 2026-05-02 02:55 362K
20260502T00Z_MSC_RDPS_DewPointDepression_IsbL-0600_RLatLon0.09_PT049H.grib2 2026-05-02 02:55 373K
20260502T00Z_MSC_RDPS_DewPointDepression_IsbL-0650_RLatLon0.09_PT049H.grib2 2026-05-02 02:55 378K
20260502T00Z_MSC_RDPS_DewPointDepression_IsbL-0700_RLatLon0.09_PT049H.grib2 2026-05-02 02:55 389K
20260502T00Z_MSC_RDPS_DewPointDepression_IsbL-0750_RLatLon0.09_PT049H.grib2 2026-05-02 02:55 407K
20260502T00Z_MSC_RDPS_DewPointDepression_IsbL-0800_RLatLon0.09_PT049H.grib2 2026-05-02 02:55 442K
20260502T00Z_MSC_RDPS_DewPointDepression_IsbL-0850_RLatLon0.09_PT049H.grib2 2026-05-02 02:55 474K
20260502T00Z_MSC_RDPS_DewPointDepression_IsbL-0875_RLatLon0.09_PT049H.grib2 2026-05-02 02:55 475K
20260502T00Z_MSC_RDPS_DewPointDepression_IsbL-0900_RLatLon0.09_PT049H.grib2 2026-05-02 02:55 466K
20260502T00Z_MSC_RDPS_DewPointDepression_IsbL-0925_RLatLon0.09_PT049H.grib2 2026-05-02 02:55 453K
20260502T00Z_MSC_RDPS_DewPointDepression_IsbL-0950_RLatLon0.09_PT049H.grib2 2026-05-02 02:55 444K
20260502T00Z_MSC_RDPS_DewPointDepression_IsbL-0970_RLatLon0.09_PT049H.grib2 2026-05-02 02:55 434K
20260502T00Z_MSC_RDPS_DewPointDepression_IsbL-0985_RLatLon0.09_PT049H.grib2 2026-05-02 02:55 429K
20260502T00Z_MSC_RDPS_DewPointDepression_IsbL-1000_RLatLon0.09_PT049H.grib2 2026-05-02 02:55 425K
20260502T00Z_MSC_RDPS_DewPointDepression_IsbL-1015_RLatLon0.09_PT049H.grib2 2026-05-02 02:55 416K
20260502T00Z_MSC_RDPS_DewPoint_AGL-2m_RLatLon0.09_PT049H.grib2 2026-05-02 02:55 308K
20260502T00Z_MSC_RDPS_DownwardLongwaveRadiationFlux-Accum_Sfc_RLatLon0.09_PT049H.grib2 2026-05-02 02:55 374K
20260502T00Z_MSC_RDPS_DownwardShortwaveRadiationFlux-Accum_NTAtm_RLatLon0.09_PT049H.grib2 2026-05-02 02:55 120K
20260502T00Z_MSC_RDPS_DownwardShortwaveRadiationFlux-Accum_Sfc_RLatLon0.09_PT049H.grib2 2026-05-02 02:55 563K
20260502T00Z_MSC_RDPS_FreezingRain-Accum1h_Sfc_RLatLon0.09_PT049H.grib2 2026-05-02 02:55 22K
20260502T00Z_MSC_RDPS_FreezingRain-Accum_Sfc_RLatLon0.09_PT049H.grib2 2026-05-02 02:55 154K
20260502T00Z_MSC_RDPS_GeopotentialHeight_IsbL-0001_RLatLon0.09_PT049H.grib2 2026-05-02 02:55 310K
20260502T00Z_MSC_RDPS_GeopotentialHeight_IsbL-0005_RLatLon0.09_PT049H.grib2 2026-05-02 02:55 334K
20260502T00Z_MSC_RDPS_GeopotentialHeight_IsbL-0010_RLatLon0.09_PT049H.grib2 2026-05-02 02:55 301K
20260502T00Z_MSC_RDPS_GeopotentialHeight_IsbL-0020_RLatLon0.09_PT049H.grib2 2026-05-02 02:55 396K
20260502T00Z_MSC_RDPS_GeopotentialHeight_IsbL-0030_RLatLon0.09_PT049H.grib2 2026-05-02 02:55 303K
20260502T00Z_MSC_RDPS_GeopotentialHeight_IsbL-0050_RLatLon0.09_PT049H.grib2 2026-05-02 02:55 340K
20260502T00Z_MSC_RDPS_GeopotentialHeight_IsbL-0100_RLatLon0.09_PT049H.grib2 2026-05-02 02:55 286K
20260502T00Z_MSC_RDPS_GeopotentialHeight_IsbL-0150_RLatLon0.09_PT049H.grib2 2026-05-02 02:55 229K
20260502T00Z_MSC_RDPS_GeopotentialHeight_IsbL-0175_RLatLon0.09_PT049H.grib2 2026-05-02 02:55 232K
20260502T00Z_MSC_RDPS_GeopotentialHeight_IsbL-0200_RLatLon0.09_PT049H.grib2 2026-05-02 02:55 265K
20260502T00Z_MSC_RDPS_GeopotentialHeight_IsbL-0225_RLatLon0.09_PT049H.grib2 2026-05-02 02:55 265K
20260502T00Z_MSC_RDPS_GeopotentialHeight_IsbL-0250_RLatLon0.09_PT049H.grib2 2026-05-02 02:55 266K
20260502T00Z_MSC_RDPS_GeopotentialHeight_IsbL-0275_RLatLon0.09_PT049H.grib2 2026-05-02 02:55 265K
20260502T00Z_MSC_RDPS_GeopotentialHeight_IsbL-0300_RLatLon0.09_PT049H.grib2 2026-05-02 02:55 235K
20260502T00Z_MSC_RDPS_GeopotentialHeight_IsbL-0350_RLatLon0.09_PT049H.grib2 2026-05-02 02:55 231K
20260502T00Z_MSC_RDPS_GeopotentialHeight_IsbL-0400_RLatLon0.09_PT049H.grib2 2026-05-02 02:55 227K
20260502T00Z_MSC_RDPS_GeopotentialHeight_IsbL-0450_RLatLon0.09_PT049H.grib2 2026-05-02 02:55 297K
20260502T00Z_MSC_RDPS_GeopotentialHeight_IsbL-0500_RLatLon0.09_PT049H.grib2 2026-05-02 02:55 293K
20260502T00Z_MSC_RDPS_GeopotentialHeight_IsbL-0550_RLatLon0.09_PT049H.grib2 2026-05-02 02:55 289K
20260502T00Z_MSC_RDPS_GeopotentialHeight_IsbL-0600_RLatLon0.09_PT049H.grib2 2026-05-02 02:55 286K
20260502T00Z_MSC_RDPS_GeopotentialHeight_IsbL-0650_RLatLon0.09_PT049H.grib2 2026-05-02 02:55 255K
20260502T00Z_MSC_RDPS_GeopotentialHeight_IsbL-0700_RLatLon0.09_PT049H.grib2 2026-05-02 02:55 254K
20260502T00Z_MSC_RDPS_GeopotentialHeight_IsbL-0750_RLatLon0.09_PT049H.grib2 2026-05-02 02:55 256K
20260502T00Z_MSC_RDPS_GeopotentialHeight_IsbL-0800_RLatLon0.09_PT049H.grib2 2026-05-02 02:55 344K
20260502T00Z_MSC_RDPS_GeopotentialHeight_IsbL-0850_RLatLon0.09_PT049H.grib2 2026-05-02 02:55 352K
20260502T00Z_MSC_RDPS_GeopotentialHeight_IsbL-0875_RLatLon0.09_PT049H.grib2 2026-05-02 02:55 355K
20260502T00Z_MSC_RDPS_GeopotentialHeight_IsbL-0900_RLatLon0.09_PT049H.grib2 2026-05-02 02:55 359K
20260502T00Z_MSC_RDPS_GeopotentialHeight_IsbL-0925_RLatLon0.09_PT049H.grib2 2026-05-02 02:55 361K
20260502T00Z_MSC_RDPS_GeopotentialHeight_IsbL-0950_RLatLon0.09_PT049H.grib2 2026-05-02 02:55 363K
20260502T00Z_MSC_RDPS_GeopotentialHeight_IsbL-0970_RLatLon0.09_PT049H.grib2 2026-05-02 02:55 368K
20260502T00Z_MSC_RDPS_GeopotentialHeight_IsbL-0985_RLatLon0.09_PT049H.grib2 2026-05-02 02:55 376K
20260502T00Z_MSC_RDPS_GeopotentialHeight_IsbL-1000_RLatLon0.09_PT049H.grib2 2026-05-02 02:55 386K
20260502T00Z_MSC_RDPS_GeopotentialHeight_IsbL-1015_RLatLon0.09_PT049H.grib2 2026-05-02 02:55 400K
20260502T00Z_MSC_RDPS_Humidex_Sfc_RLatLon0.09_PT049H.grib2 2026-05-02 02:55 2.4M
20260502T00Z_MSC_RDPS_IcePellets-Accum1h_Sfc_RLatLon0.09_PT049H.grib2 2026-05-02 02:55 1.7K
20260502T00Z_MSC_RDPS_IcePellets-Accum_Sfc_RLatLon0.09_PT049H.grib2 2026-05-02 02:55 21K
20260502T00Z_MSC_RDPS_KIndex_Sfc_RLatLon0.09_PT049H.grib2 2026-05-02 02:55 2.5M
20260502T00Z_MSC_RDPS_LatentHeatNetFlux_Sfc_RLatLon0.09_PT049H.grib2 2026-05-02 02:55 342K
20260502T00Z_MSC_RDPS_LiftedIndex-MU-VT_IsbL-0500_RLatLon0.09_PT049H.grib2 2026-05-02 02:55 2.4M
20260502T00Z_MSC_RDPS_NetLongwaveRadiationFlux-Accum_Sfc_RLatLon0.09_PT049H.grib2 2026-05-02 02:55 553K
20260502T00Z_MSC_RDPS_NetShortwaveRadiationFlux-Accum_Sfc_RLatLon0.09_PT049H.grib2 2026-05-02 02:55 565K
20260502T00Z_MSC_RDPS_PlanetaryBoundaryLayerHeight_Sfc_RLatLon0.09_PT049H.grib2 2026-05-02 02:55 1.0M
20260502T00Z_MSC_RDPS_Precip-Accum1h_Sfc_RLatLon0.09_PT049H.grib2 2026-05-02 02:55 1.2M
20260502T00Z_MSC_RDPS_Precip-Accum_Sfc_RLatLon0.09_PT049H.grib2 2026-05-02 02:55 2.1M
20260502T00Z_MSC_RDPS_PrecipRate_Sfc_RLatLon0.09_PT049H.grib2 2026-05-02 02:55 160K
20260502T00Z_MSC_RDPS_PrecipType-Instant_Sfc_RLatLon0.09_PT049H.grib2 2026-05-02 02:55 580K
20260502T00Z_MSC_RDPS_Pressure-Trend3h_Sfc_RLatLon0.09_PT049H.grib2 2026-05-02 02:55 1.1M
20260502T00Z_MSC_RDPS_Pressure_MSL_RLatLon0.09_PT049H.grib2 2026-05-02 02:55 324K
20260502T00Z_MSC_RDPS_Pressure_PVU-1.5_RLatLon0.09_PT049H.grib2 2026-05-02 02:55 2.3M
20260502T00Z_MSC_RDPS_Pressure_PVU-1_RLatLon0.09_PT049H.grib2 2026-05-02 02:55 2.4M
20260502T00Z_MSC_RDPS_Pressure_PVU-2_RLatLon0.09_PT049H.grib2 2026-05-02 02:55 2.4M
20260502T00Z_MSC_RDPS_Pressure_Sfc_RLatLon0.09_PT049H.grib2 2026-05-02 02:55 497K
20260502T00Z_MSC_RDPS_RadiativeTemp_Sfc_RLatLon0.09_PT049H.grib2 2026-05-02 02:55 310K
20260502T00Z_MSC_RDPS_Rain-Accum1h_Sfc_RLatLon0.09_PT049H.grib2 2026-05-02 02:55 606K
20260502T00Z_MSC_RDPS_Rain-Accum_Sfc_RLatLon0.09_PT049H.grib2 2026-05-02 02:55 1.7M
20260502T00Z_MSC_RDPS_RelativeHumidity_AGL-2m_RLatLon0.09_PT049H.grib2 2026-05-02 02:55 1.0M
20260502T00Z_MSC_RDPS_RelativeHumidity_IsbL-0010_RLatLon0.09_PT049H.grib2 2026-05-02 02:55 523K
20260502T00Z_MSC_RDPS_RelativeHumidity_IsbL-0020_RLatLon0.09_PT049H.grib2 2026-05-02 02:55 661K
20260502T00Z_MSC_RDPS_RelativeHumidity_IsbL-0030_RLatLon0.09_PT049H.grib2 2026-05-02 02:55 605K
20260502T00Z_MSC_RDPS_RelativeHumidity_IsbL-0050_RLatLon0.09_PT049H.grib2 2026-05-02 02:55 358K
20260502T00Z_MSC_RDPS_RelativeHumidity_IsbL-0100_RLatLon0.09_PT049H.grib2 2026-05-02 02:55 277K
20260502T00Z_MSC_RDPS_RelativeHumidity_IsbL-0150_RLatLon0.09_PT049H.grib2 2026-05-02 02:55 410K
20260502T00Z_MSC_RDPS_RelativeHumidity_IsbL-0175_RLatLon0.09_PT049H.grib2 2026-05-02 02:55 472K
20260502T00Z_MSC_RDPS_RelativeHumidity_IsbL-0200_RLatLon0.09_PT049H.grib2 2026-05-02 02:55 551K
20260502T00Z_MSC_RDPS_RelativeHumidity_IsbL-0225_RLatLon0.09_PT049H.grib2 2026-05-02 02:55 621K
20260502T00Z_MSC_RDPS_RelativeHumidity_IsbL-0250_RLatLon0.09_PT049H.grib2 2026-05-02 02:55 686K
20260502T00Z_MSC_RDPS_RelativeHumidity_IsbL-0275_RLatLon0.09_PT049H.grib2 2026-05-02 02:55 709K
20260502T00Z_MSC_RDPS_RelativeHumidity_IsbL-0300_RLatLon0.09_PT049H.grib2 2026-05-02 02:55 749K
20260502T00Z_MSC_RDPS_RelativeHumidity_IsbL-0350_RLatLon0.09_PT049H.grib2 2026-05-02 02:55 775K
20260502T00Z_MSC_RDPS_RelativeHumidity_IsbL-0400_RLatLon0.09_PT049H.grib2 2026-05-02 02:55 788K
20260502T00Z_MSC_RDPS_RelativeHumidity_IsbL-0450_RLatLon0.09_PT049H.grib2 2026-05-02 02:55 792K
20260502T00Z_MSC_RDPS_RelativeHumidity_IsbL-0500_RLatLon0.09_PT049H.grib2 2026-05-02 02:55 797K
20260502T00Z_MSC_RDPS_RelativeHumidity_IsbL-0550_RLatLon0.09_PT049H.grib2 2026-05-02 02:55 819K
20260502T00Z_MSC_RDPS_RelativeHumidity_IsbL-0600_RLatLon0.09_PT049H.grib2 2026-05-02 02:55 836K
20260502T00Z_MSC_RDPS_RelativeHumidity_IsbL-0650_RLatLon0.09_PT049H.grib2 2026-05-02 02:55 848K
20260502T00Z_MSC_RDPS_RelativeHumidity_IsbL-0700_RLatLon0.09_PT049H.grib2 2026-05-02 02:55 877K
20260502T00Z_MSC_RDPS_RelativeHumidity_IsbL-0750_RLatLon0.09_PT049H.grib2 2026-05-02 02:55 916K
20260502T00Z_MSC_RDPS_RelativeHumidity_IsbL-0800_RLatLon0.09_PT049H.grib2 2026-05-02 02:55 1.0M
20260502T00Z_MSC_RDPS_RelativeHumidity_IsbL-0850_RLatLon0.09_PT049H.grib2 2026-05-02 02:55 1.0M
20260502T00Z_MSC_RDPS_RelativeHumidity_IsbL-0875_RLatLon0.09_PT049H.grib2 2026-05-02 02:55 1.1M
20260502T00Z_MSC_RDPS_RelativeHumidity_IsbL-0900_RLatLon0.09_PT049H.grib2 2026-05-02 02:55 1.1M
20260502T00Z_MSC_RDPS_RelativeHumidity_IsbL-0925_RLatLon0.09_PT049H.grib2 2026-05-02 02:55 1.1M
20260502T00Z_MSC_RDPS_RelativeHumidity_IsbL-0950_RLatLon0.09_PT049H.grib2 2026-05-02 02:55 1.1M
20260502T00Z_MSC_RDPS_RelativeHumidity_IsbL-0970_RLatLon0.09_PT049H.grib2 2026-05-02 02:55 1.0M
20260502T00Z_MSC_RDPS_RelativeHumidity_IsbL-0985_RLatLon0.09_PT049H.grib2 2026-05-02 02:55 1.0M
20260502T00Z_MSC_RDPS_RelativeHumidity_IsbL-1000_RLatLon0.09_PT049H.grib2 2026-05-02 02:55 1.0M
20260502T00Z_MSC_RDPS_RelativeHumidity_IsbL-1015_RLatLon0.09_PT049H.grib2 2026-05-02 02:55 1.0M
20260502T00Z_MSC_RDPS_Runoff-Accum_Sfc_RLatLon0.09_PT049H.grib2 2026-05-02 02:55 75K
20260502T00Z_MSC_RDPS_SWEATIndex_Sfc_RLatLon0.09_PT049H.grib2 2026-05-02 02:55 2.4M
20260502T00Z_MSC_RDPS_SeeingIndex_EAtm_RLatLon0.09_PT049H.grib2 2026-05-02 02:55 1.0M
20260502T00Z_MSC_RDPS_SensibleHeatNetFlux_Sfc_RLatLon0.09_PT049H.grib2 2026-05-02 02:55 301K
20260502T00Z_MSC_RDPS_ShowalterIndex_IsbL-0500_RLatLon0.09_PT049H.grib2 2026-05-02 02:55 2.6M
20260502T00Z_MSC_RDPS_SkyTransparencyIndex_EAtm_RLatLon0.09_PT049H.grib2 2026-05-02 02:55 720K
20260502T00Z_MSC_RDPS_Snow-Accum1h_Sfc_RLatLon0.09_PT049H.grib2 2026-05-02 02:55 432K
20260502T00Z_MSC_RDPS_Snow-Accum_Sfc_RLatLon0.09_PT049H.grib2 2026-05-02 02:55 703K
20260502T00Z_MSC_RDPS_SnowDensity_Sfc_RLatLon0.09_PT049H.grib2 2026-05-02 02:55 170K
20260502T00Z_MSC_RDPS_SnowDepth_Sfc_RLatLon0.09_PT049H.grib2 2026-05-02 02:55 649K
20260502T00Z_MSC_RDPS_SoilTemp_DBS-0to10cm_RLatLon0.09_PT049H.grib2 2026-05-02 02:55 244K
20260502T00Z_MSC_RDPS_SoilTemp_Sfc_RLatLon0.09_PT049H.grib2 2026-05-02 02:55 267K
20260502T00Z_MSC_RDPS_SoilVolumetricIceContent_Sfc_RLatLon0.09_PT049H.grib2 2026-05-02 02:55 156K
20260502T00Z_MSC_RDPS_SoilVolumetricWaterContent_DBS-0to10cm_RLatLon0.09_PT049H.grib2 2026-05-02 02:55 274K
20260502T00Z_MSC_RDPS_SoilVolumetricWaterContent_DBS-0to1cm_RLatLon0.09_PT049H.grib2 2026-05-02 02:55 341K
20260502T00Z_MSC_RDPS_SpecificHumidity_AGL-120m_RLatLon0.09_PT049H.grib2 2026-05-02 02:55 485K
20260502T00Z_MSC_RDPS_SpecificHumidity_AGL-2m_RLatLon0.09_PT049H.grib2 2026-05-02 02:55 658K
20260502T00Z_MSC_RDPS_SpecificHumidity_AGL-40m_RLatLon0.09_PT049H.grib2 2026-05-02 02:55 493K
20260502T00Z_MSC_RDPS_SpecificHumidity_AGL-80m_RLatLon0.09_PT049H.grib2 2026-05-02 02:55 487K
20260502T00Z_MSC_RDPS_SpecificHumidity_IsbL-0001_RLatLon0.09_PT049H.grib2 2026-05-02 02:55 365K
20260502T00Z_MSC_RDPS_SpecificHumidity_IsbL-0005_RLatLon0.09_PT049H.grib2 2026-05-02 02:55 366K
20260502T00Z_MSC_RDPS_SpecificHumidity_IsbL-0010_RLatLon0.09_PT049H.grib2 2026-05-02 02:55 400K
20260502T00Z_MSC_RDPS_SpecificHumidity_IsbL-0020_RLatLon0.09_PT049H.grib2 2026-05-02 02:55 376K
20260502T00Z_MSC_RDPS_SpecificHumidity_IsbL-0030_RLatLon0.09_PT049H.grib2 2026-05-02 02:55 372K
20260502T00Z_MSC_RDPS_SpecificHumidity_IsbL-0050_RLatLon0.09_PT049H.grib2 2026-05-02 02:55 478K
20260502T00Z_MSC_RDPS_SpecificHumidity_IsbL-0100_RLatLon0.09_PT049H.grib2 2026-05-02 02:55 423K
20260502T00Z_MSC_RDPS_SpecificHumidity_IsbL-0150_RLatLon0.09_PT049H.grib2 2026-05-02 02:55 450K
20260502T00Z_MSC_RDPS_SpecificHumidity_IsbL-0175_RLatLon0.09_PT049H.grib2 2026-05-02 02:55 436K
20260502T00Z_MSC_RDPS_SpecificHumidity_IsbL-0200_RLatLon0.09_PT049H.grib2 2026-05-02 02:55 457K
20260502T00Z_MSC_RDPS_SpecificHumidity_IsbL-0225_RLatLon0.09_PT049H.grib2 2026-05-02 02:55 475K
20260502T00Z_MSC_RDPS_SpecificHumidity_IsbL-0250_RLatLon0.09_PT049H.grib2 2026-05-02 02:55 519K
20260502T00Z_MSC_RDPS_SpecificHumidity_IsbL-0275_RLatLon0.09_PT049H.grib2 2026-05-02 02:55 477K
20260502T00Z_MSC_RDPS_SpecificHumidity_IsbL-0300_RLatLon0.09_PT049H.grib2 2026-05-02 02:55 450K
20260502T00Z_MSC_RDPS_SpecificHumidity_IsbL-0350_RLatLon0.09_PT049H.grib2 2026-05-02 02:55 448K
20260502T00Z_MSC_RDPS_SpecificHumidity_IsbL-0400_RLatLon0.09_PT049H.grib2 2026-05-02 02:55 525K
20260502T00Z_MSC_RDPS_SpecificHumidity_IsbL-0450_RLatLon0.09_PT049H.grib2 2026-05-02 02:55 575K
20260502T00Z_MSC_RDPS_SpecificHumidity_IsbL-0500_RLatLon0.09_PT049H.grib2 2026-05-02 02:55 510K
20260502T00Z_MSC_RDPS_SpecificHumidity_IsbL-0550_RLatLon0.09_PT049H.grib2 2026-05-02 02:55 585K
20260502T00Z_MSC_RDPS_SpecificHumidity_IsbL-0600_RLatLon0.09_PT049H.grib2 2026-05-02 02:55 635K
20260502T00Z_MSC_RDPS_SpecificHumidity_IsbL-0650_RLatLon0.09_PT049H.grib2 2026-05-02 02:55 551K
20260502T00Z_MSC_RDPS_SpecificHumidity_IsbL-0700_RLatLon0.09_PT049H.grib2 2026-05-02 02:55 592K
20260502T00Z_MSC_RDPS_SpecificHumidity_IsbL-0750_RLatLon0.09_PT049H.grib2 2026-05-02 02:55 646K
20260502T00Z_MSC_RDPS_SpecificHumidity_IsbL-0800_RLatLon0.09_PT049H.grib2 2026-05-02 02:55 730K
20260502T00Z_MSC_RDPS_SpecificHumidity_IsbL-0850_RLatLon0.09_PT049H.grib2 2026-05-02 02:55 806K
20260502T00Z_MSC_RDPS_SpecificHumidity_IsbL-0875_RLatLon0.09_PT049H.grib2 2026-05-02 02:55 834K
20260502T00Z_MSC_RDPS_SpecificHumidity_IsbL-0900_RLatLon0.09_PT049H.grib2 2026-05-02 02:55 707K
20260502T00Z_MSC_RDPS_SpecificHumidity_IsbL-0925_RLatLon0.09_PT049H.grib2 2026-05-02 02:55 708K
20260502T00Z_MSC_RDPS_SpecificHumidity_IsbL-0950_RLatLon0.09_PT049H.grib2 2026-05-02 02:55 707K
20260502T00Z_MSC_RDPS_SpecificHumidity_IsbL-0970_RLatLon0.09_PT049H.grib2 2026-05-02 02:55 696K
20260502T00Z_MSC_RDPS_SpecificHumidity_IsbL-0985_RLatLon0.09_PT049H.grib2 2026-05-02 02:55 687K
20260502T00Z_MSC_RDPS_SpecificHumidity_IsbL-1000_RLatLon0.09_PT049H.grib2 2026-05-02 02:55 682K
20260502T00Z_MSC_RDPS_SpecificHumidity_IsbL-1015_RLatLon0.09_PT049H.grib2 2026-05-02 02:55 672K
20260502T00Z_MSC_RDPS_SpecificHumidity_Sfc_RLatLon0.09_PT049H.grib2 2026-05-02 02:55 329K
20260502T00Z_MSC_RDPS_StormRelativeHelicity_EtaL-10000_RLatLon0.09_PT049H.grib2 2026-05-02 02:55 1.1M
20260502T00Z_MSC_RDPS_StormSeverityIndex_EtaL-10000_RLatLon0.09_PT049H.grib2 2026-05-02 02:55 1.1M
20260502T00Z_MSC_RDPS_Thickness_IsbL-0850to0700_RLatLon0.09_PT049H.grib2 2026-05-02 02:55 173K
20260502T00Z_MSC_RDPS_Thickness_IsbL-1000to0500_RLatLon0.09_PT049H.grib2 2026-05-02 02:55 194K
20260502T00Z_MSC_RDPS_Thickness_IsbL-1000to0850_RLatLon0.09_PT049H.grib2 2026-05-02 02:55 183K
20260502T00Z_MSC_RDPS_TotalCloudCover_Sfc_RLatLon0.09_PT049H.grib2 2026-05-02 02:55 657K
20260502T00Z_MSC_RDPS_TotalTotalsIndex_Sfc_RLatLon0.09_PT049H.grib2 2026-05-02 02:55 2.4M
20260502T00Z_MSC_RDPS_UVIndex-ClearSky_Sfc_RLatLon0.09_PT049H.grib2 2026-05-02 02:55 145K
20260502T00Z_MSC_RDPS_UVIndex_Sfc_RLatLon0.09_PT049H.grib2 2026-05-02 02:55 317K
20260502T00Z_MSC_RDPS_UpwardLongwaveRadiationFlux_NTAtm_RLatLon0.09_PT049H.grib2 2026-05-02 02:55 488K
20260502T00Z_MSC_RDPS_UpwardShortwaveRadiationFlux_NTAtm_RLatLon0.09_PT049H.grib2 2026-05-02 02:55 287K
20260502T00Z_MSC_RDPS_VerticalVelocity_IsbL-0250_RLatLon0.09_PT049H.grib2 2026-05-02 02:55 453K
20260502T00Z_MSC_RDPS_VerticalVelocity_IsbL-0500_RLatLon0.09_PT049H.grib2 2026-05-02 02:55 541K
20260502T00Z_MSC_RDPS_VerticalVelocity_IsbL-0700_RLatLon0.09_PT049H.grib2 2026-05-02 02:55 594K
20260502T00Z_MSC_RDPS_VerticalVelocity_IsbL-0850_RLatLon0.09_PT049H.grib2 2026-05-02 02:55 695K
20260502T00Z_MSC_RDPS_VerticalWindShear_EtaL-6500_RLatLon0.09_PT049H.grib2 2026-05-02 02:55 1.2M
20260502T00Z_MSC_RDPS_WindChill_Sfc_RLatLon0.09_PT049H.grib2 2026-05-02 02:55 1.1M
20260502T00Z_MSC_RDPS_WindDir_AGL-10m_RLatLon0.09_PT049H.grib2 2026-05-02 02:55 947K
20260502T00Z_MSC_RDPS_WindDir_AGL-120m_RLatLon0.09_PT049H.grib2 2026-05-02 02:55 591K
20260502T00Z_MSC_RDPS_WindDir_AGL-40m_RLatLon0.09_PT049H.grib2 2026-05-02 02:55 618K
20260502T00Z_MSC_RDPS_WindDir_AGL-80m_RLatLon0.09_PT049H.grib2 2026-05-02 02:55 602K
20260502T00Z_MSC_RDPS_WindDir_IsbL-0001_RLatLon0.09_PT049H.grib2 2026-05-02 02:55 292K
20260502T00Z_MSC_RDPS_WindDir_IsbL-0005_RLatLon0.09_PT049H.grib2 2026-05-02 02:55 377K
20260502T00Z_MSC_RDPS_WindDir_IsbL-0010_RLatLon0.09_PT049H.grib2 2026-05-02 02:55 401K
20260502T00Z_MSC_RDPS_WindDir_IsbL-0020_RLatLon0.09_PT049H.grib2 2026-05-02 02:55 441K
20260502T00Z_MSC_RDPS_WindDir_IsbL-0030_RLatLon0.09_PT049H.grib2 2026-05-02 02:55 428K
20260502T00Z_MSC_RDPS_WindDir_IsbL-0050_RLatLon0.09_PT049H.grib2 2026-05-02 02:55 405K
20260502T00Z_MSC_RDPS_WindDir_IsbL-0100_RLatLon0.09_PT049H.grib2 2026-05-02 02:55 407K
20260502T00Z_MSC_RDPS_WindDir_IsbL-0150_RLatLon0.09_PT049H.grib2 2026-05-02 02:55 415K
20260502T00Z_MSC_RDPS_WindDir_IsbL-0175_RLatLon0.09_PT049H.grib2 2026-05-02 02:55 433K
20260502T00Z_MSC_RDPS_WindDir_IsbL-0200_RLatLon0.09_PT049H.grib2 2026-05-02 02:55 450K
20260502T00Z_MSC_RDPS_WindDir_IsbL-0225_RLatLon0.09_PT049H.grib2 2026-05-02 02:55 461K
20260502T00Z_MSC_RDPS_WindDir_IsbL-0250_RLatLon0.09_PT049H.grib2 2026-05-02 02:55 459K
20260502T00Z_MSC_RDPS_WindDir_IsbL-0275_RLatLon0.09_PT049H.grib2 2026-05-02 02:55 478K
20260502T00Z_MSC_RDPS_WindDir_IsbL-0300_RLatLon0.09_PT049H.grib2 2026-05-02 02:55 472K
20260502T00Z_MSC_RDPS_WindDir_IsbL-0350_RLatLon0.09_PT049H.grib2 2026-05-02 02:55 492K
20260502T00Z_MSC_RDPS_WindDir_IsbL-0400_RLatLon0.09_PT049H.grib2 2026-05-02 02:55 520K
20260502T00Z_MSC_RDPS_WindDir_IsbL-0450_RLatLon0.09_PT049H.grib2 2026-05-02 02:55 525K
20260502T00Z_MSC_RDPS_WindDir_IsbL-0500_RLatLon0.09_PT049H.grib2 2026-05-02 02:55 530K
20260502T00Z_MSC_RDPS_WindDir_IsbL-0550_RLatLon0.09_PT049H.grib2 2026-05-02 02:55 540K
20260502T00Z_MSC_RDPS_WindDir_IsbL-0600_RLatLon0.09_PT049H.grib2 2026-05-02 02:55 565K
20260502T00Z_MSC_RDPS_WindDir_IsbL-0650_RLatLon0.09_PT049H.grib2 2026-05-02 02:55 601K
20260502T00Z_MSC_RDPS_WindDir_IsbL-0700_RLatLon0.09_PT049H.grib2 2026-05-02 02:55 642K
20260502T00Z_MSC_RDPS_WindDir_IsbL-0750_RLatLon0.09_PT049H.grib2 2026-05-02 02:55 686K
20260502T00Z_MSC_RDPS_WindDir_IsbL-0800_RLatLon0.09_PT049H.grib2 2026-05-02 02:55 750K
20260502T00Z_MSC_RDPS_WindDir_IsbL-0850_RLatLon0.09_PT049H.grib2 2026-05-02 02:55 838K
20260502T00Z_MSC_RDPS_WindDir_IsbL-0875_RLatLon0.09_PT049H.grib2 2026-05-02 02:55 872K
20260502T00Z_MSC_RDPS_WindDir_IsbL-0900_RLatLon0.09_PT049H.grib2 2026-05-02 02:55 891K
20260502T00Z_MSC_RDPS_WindDir_IsbL-0925_RLatLon0.09_PT049H.grib2 2026-05-02 02:55 898K
20260502T00Z_MSC_RDPS_WindDir_IsbL-0950_RLatLon0.09_PT049H.grib2 2026-05-02 02:55 896K
20260502T00Z_MSC_RDPS_WindDir_IsbL-0970_RLatLon0.09_PT049H.grib2 2026-05-02 02:55 901K
20260502T00Z_MSC_RDPS_WindDir_IsbL-0985_RLatLon0.09_PT049H.grib2 2026-05-02 02:55 912K
20260502T00Z_MSC_RDPS_WindDir_IsbL-1000_RLatLon0.09_PT049H.grib2 2026-05-02 02:55 925K
20260502T00Z_MSC_RDPS_WindDir_IsbL-1015_RLatLon0.09_PT049H.grib2 2026-05-02 02:55 938K
20260502T00Z_MSC_RDPS_WindGust-Max_AGL-10m_RLatLon0.09_PT049H.grib2 2026-05-02 02:55 1.0M
20260502T00Z_MSC_RDPS_WindGust-Min_AGL-10m_RLatLon0.09_PT049H.grib2 2026-05-02 02:55 972K
20260502T00Z_MSC_RDPS_WindGust_AGL-10m_RLatLon0.09_PT049H.grib2 2026-05-02 02:55 1.0M
20260502T00Z_MSC_RDPS_WindSpeed_AGL-10m_RLatLon0.09_PT049H.grib2 2026-05-02 02:55 832K
20260502T00Z_MSC_RDPS_WindSpeed_AGL-120m_RLatLon0.09_PT049H.grib2 2026-05-02 02:55 541K
20260502T00Z_MSC_RDPS_WindSpeed_AGL-40m_RLatLon0.09_PT049H.grib2 2026-05-02 02:55 534K
20260502T00Z_MSC_RDPS_WindSpeed_AGL-80m_RLatLon0.09_PT049H.grib2 2026-05-02 02:55 542K
20260502T00Z_MSC_RDPS_WindSpeed_IsbL-0001_RLatLon0.09_PT049H.grib2 2026-05-02 02:55 253K
20260502T00Z_MSC_RDPS_WindSpeed_IsbL-0005_RLatLon0.09_PT049H.grib2 2026-05-02 02:55 348K
20260502T00Z_MSC_RDPS_WindSpeed_IsbL-0010_RLatLon0.09_PT049H.grib2 2026-05-02 02:55 369K
20260502T00Z_MSC_RDPS_WindSpeed_IsbL-0020_RLatLon0.09_PT049H.grib2 2026-05-02 02:55 324K
20260502T00Z_MSC_RDPS_WindSpeed_IsbL-0030_RLatLon0.09_PT049H.grib2 2026-05-02 02:55 324K
20260502T00Z_MSC_RDPS_WindSpeed_IsbL-0050_RLatLon0.09_PT049H.grib2 2026-05-02 02:55 354K
20260502T00Z_MSC_RDPS_WindSpeed_IsbL-0100_RLatLon0.09_PT049H.grib2 2026-05-02 02:55 477K
20260502T00Z_MSC_RDPS_WindSpeed_IsbL-0150_RLatLon0.09_PT049H.grib2 2026-05-02 02:55 383K
20260502T00Z_MSC_RDPS_WindSpeed_IsbL-0175_RLatLon0.09_PT049H.grib2 2026-05-02 02:55 430K
20260502T00Z_MSC_RDPS_WindSpeed_IsbL-0200_RLatLon0.09_PT049H.grib2 2026-05-02 02:55 446K
20260502T00Z_MSC_RDPS_WindSpeed_IsbL-0225_RLatLon0.09_PT049H.grib2 2026-05-02 02:55 454K
20260502T00Z_MSC_RDPS_WindSpeed_IsbL-0250_RLatLon0.09_PT049H.grib2 2026-05-02 02:55 455K
20260502T00Z_MSC_RDPS_WindSpeed_IsbL-0275_RLatLon0.09_PT049H.grib2 2026-05-02 02:55 471K
20260502T00Z_MSC_RDPS_WindSpeed_IsbL-0300_RLatLon0.09_PT049H.grib2 2026-05-02 02:55 467K
20260502T00Z_MSC_RDPS_WindSpeed_IsbL-0350_RLatLon0.09_PT049H.grib2 2026-05-02 02:55 478K
20260502T00Z_MSC_RDPS_WindSpeed_IsbL-0400_RLatLon0.09_PT049H.grib2 2026-05-02 02:55 463K
20260502T00Z_MSC_RDPS_WindSpeed_IsbL-0450_RLatLon0.09_PT049H.grib2 2026-05-02 02:55 465K
20260502T00Z_MSC_RDPS_WindSpeed_IsbL-0500_RLatLon0.09_PT049H.grib2 2026-05-02 02:55 466K
20260502T00Z_MSC_RDPS_WindSpeed_IsbL-0550_RLatLon0.09_PT049H.grib2 2026-05-02 02:55 466K
20260502T00Z_MSC_RDPS_WindSpeed_IsbL-0600_RLatLon0.09_PT049H.grib2 2026-05-02 02:55 592K
20260502T00Z_MSC_RDPS_WindSpeed_IsbL-0650_RLatLon0.09_PT049H.grib2 2026-05-02 02:55 610K
20260502T00Z_MSC_RDPS_WindSpeed_IsbL-0700_RLatLon0.09_PT049H.grib2 2026-05-02 02:55 675K
20260502T00Z_MSC_RDPS_WindSpeed_IsbL-0750_RLatLon0.09_PT049H.grib2 2026-05-02 02:55 705K
20260502T00Z_MSC_RDPS_WindSpeed_IsbL-0800_RLatLon0.09_PT049H.grib2 2026-05-02 02:55 707K
20260502T00Z_MSC_RDPS_WindSpeed_IsbL-0850_RLatLon0.09_PT049H.grib2 2026-05-02 02:55 766K
20260502T00Z_MSC_RDPS_WindSpeed_IsbL-0875_RLatLon0.09_PT049H.grib2 2026-05-02 02:55 790K
20260502T00Z_MSC_RDPS_WindSpeed_IsbL-0900_RLatLon0.09_PT049H.grib2 2026-05-02 02:55 850K
20260502T00Z_MSC_RDPS_WindSpeed_IsbL-0925_RLatLon0.09_PT049H.grib2 2026-05-02 02:55 860K
20260502T00Z_MSC_RDPS_WindSpeed_IsbL-0950_RLatLon0.09_PT049H.grib2 2026-05-02 02:55 861K
20260502T00Z_MSC_RDPS_WindSpeed_IsbL-0970_RLatLon0.09_PT049H.grib2 2026-05-02 02:55 860K
20260502T00Z_MSC_RDPS_WindSpeed_IsbL-0985_RLatLon0.09_PT049H.grib2 2026-05-02 02:55 856K
20260502T00Z_MSC_RDPS_WindSpeed_IsbL-1000_RLatLon0.09_PT049H.grib2 2026-05-02 02:55 844K
20260502T00Z_MSC_RDPS_WindSpeed_IsbL-1015_RLatLon0.09_PT049H.grib2 2026-05-02 02:55 833K
20260502T00Z_MSC_RDPS_WindU_AGL-10m_RLatLon0.09_PT049H.grib2 2026-05-02 02:55 427K
20260502T00Z_MSC_RDPS_WindU_AGL-120m_RLatLon0.09_PT049H.grib2 2026-05-02 02:55 411K
20260502T00Z_MSC_RDPS_WindU_AGL-40m_RLatLon0.09_PT049H.grib2 2026-05-02 02:55 414K
20260502T00Z_MSC_RDPS_WindU_AGL-80m_RLatLon0.09_PT049H.grib2 2026-05-02 02:55 413K
20260502T00Z_MSC_RDPS_WindU_IsbL-0001_RLatLon0.09_PT049H.grib2 2026-05-02 02:55 294K
20260502T00Z_MSC_RDPS_WindU_IsbL-0005_RLatLon0.09_PT049H.grib2 2026-05-02 02:55 285K
20260502T00Z_MSC_RDPS_WindU_IsbL-0010_RLatLon0.09_PT049H.grib2 2026-05-02 02:55 300K
20260502T00Z_MSC_RDPS_WindU_IsbL-0020_RLatLon0.09_PT049H.grib2 2026-05-02 02:55 355K
20260502T00Z_MSC_RDPS_WindU_IsbL-0030_RLatLon0.09_PT049H.grib2 2026-05-02 02:55 355K
20260502T00Z_MSC_RDPS_WindU_IsbL-0050_RLatLon0.09_PT049H.grib2 2026-05-02 02:55 382K
20260502T00Z_MSC_RDPS_WindU_IsbL-0100_RLatLon0.09_PT049H.grib2 2026-05-02 02:55 433K
20260502T00Z_MSC_RDPS_WindU_IsbL-0150_RLatLon0.09_PT049H.grib2 2026-05-02 02:55 399K
20260502T00Z_MSC_RDPS_WindU_IsbL-0175_RLatLon0.09_PT049H.grib2 2026-05-02 02:55 421K
20260502T00Z_MSC_RDPS_WindU_IsbL-0200_RLatLon0.09_PT049H.grib2 2026-05-02 02:55 340K
20260502T00Z_MSC_RDPS_WindU_IsbL-0225_RLatLon0.09_PT049H.grib2 2026-05-02 02:55 345K
20260502T00Z_MSC_RDPS_WindU_IsbL-0250_RLatLon0.09_PT049H.grib2 2026-05-02 02:55 346K
20260502T00Z_MSC_RDPS_WindU_IsbL-0275_RLatLon0.09_PT049H.grib2 2026-05-02 02:55 359K
20260502T00Z_MSC_RDPS_WindU_IsbL-0300_RLatLon0.09_PT049H.grib2 2026-05-02 02:55 455K
20260502T00Z_MSC_RDPS_WindU_IsbL-0350_RLatLon0.09_PT049H.grib2 2026-05-02 02:55 465K
20260502T00Z_MSC_RDPS_WindU_IsbL-0400_RLatLon0.09_PT049H.grib2 2026-05-02 02:55 469K
20260502T00Z_MSC_RDPS_WindU_IsbL-0450_RLatLon0.09_PT049H.grib2 2026-05-02 02:55 470K
20260502T00Z_MSC_RDPS_WindU_IsbL-0500_RLatLon0.09_PT049H.grib2 2026-05-02 02:55 472K
20260502T00Z_MSC_RDPS_WindU_IsbL-0550_RLatLon0.09_PT049H.grib2 2026-05-02 02:55 455K
20260502T00Z_MSC_RDPS_WindU_IsbL-0600_RLatLon0.09_PT049H.grib2 2026-05-02 02:55 463K
20260502T00Z_MSC_RDPS_WindU_IsbL-0650_RLatLon0.09_PT049H.grib2 2026-05-02 02:55 481K
20260502T00Z_MSC_RDPS_WindU_IsbL-0700_RLatLon0.09_PT049H.grib2 2026-05-02 02:55 500K
20260502T00Z_MSC_RDPS_WindU_IsbL-0750_RLatLon0.09_PT049H.grib2 2026-05-02 02:55 526K
20260502T00Z_MSC_RDPS_WindU_IsbL-0800_RLatLon0.09_PT049H.grib2 2026-05-02 02:55 566K
20260502T00Z_MSC_RDPS_WindU_IsbL-0850_RLatLon0.09_PT049H.grib2 2026-05-02 02:55 628K
20260502T00Z_MSC_RDPS_WindU_IsbL-0875_RLatLon0.09_PT049H.grib2 2026-05-02 02:55 648K
20260502T00Z_MSC_RDPS_WindU_IsbL-0900_RLatLon0.09_PT049H.grib2 2026-05-02 02:55 657K
20260502T00Z_MSC_RDPS_WindU_IsbL-0925_RLatLon0.09_PT049H.grib2 2026-05-02 02:55 663K
20260502T00Z_MSC_RDPS_WindU_IsbL-0950_RLatLon0.09_PT049H.grib2 2026-05-02 02:55 659K
20260502T00Z_MSC_RDPS_WindU_IsbL-0970_RLatLon0.09_PT049H.grib2 2026-05-02 02:55 649K
20260502T00Z_MSC_RDPS_WindU_IsbL-0985_RLatLon0.09_PT049H.grib2 2026-05-02 02:55 646K
20260502T00Z_MSC_RDPS_WindU_IsbL-1000_RLatLon0.09_PT049H.grib2 2026-05-02 02:55 779K
20260502T00Z_MSC_RDPS_WindU_IsbL-1015_RLatLon0.09_PT049H.grib2 2026-05-02 02:55 771K
20260502T00Z_MSC_RDPS_WindV_AGL-10m_RLatLon0.09_PT049H.grib2 2026-05-02 02:55 427K
20260502T00Z_MSC_RDPS_WindV_AGL-120m_RLatLon0.09_PT049H.grib2 2026-05-02 02:55 412K
20260502T00Z_MSC_RDPS_WindV_AGL-40m_RLatLon0.09_PT049H.grib2 2026-05-02 02:55 531K
20260502T00Z_MSC_RDPS_WindV_AGL-80m_RLatLon0.09_PT049H.grib2 2026-05-02 02:55 413K
20260502T00Z_MSC_RDPS_WindV_IsbL-0001_RLatLon0.09_PT049H.grib2 2026-05-02 02:55 247K
20260502T00Z_MSC_RDPS_WindV_IsbL-0005_RLatLon0.09_PT049H.grib2 2026-05-02 02:55 288K
20260502T00Z_MSC_RDPS_WindV_IsbL-0010_RLatLon0.09_PT049H.grib2 2026-05-02 02:55 301K
20260502T00Z_MSC_RDPS_WindV_IsbL-0020_RLatLon0.09_PT049H.grib2 2026-05-02 02:55 319K
20260502T00Z_MSC_RDPS_WindV_IsbL-0030_RLatLon0.09_PT049H.grib2 2026-05-02 02:55 318K
20260502T00Z_MSC_RDPS_WindV_IsbL-0050_RLatLon0.09_PT049H.grib2 2026-05-02 02:55 345K
20260502T00Z_MSC_RDPS_WindV_IsbL-0100_RLatLon0.09_PT049H.grib2 2026-05-02 02:55 334K
20260502T00Z_MSC_RDPS_WindV_IsbL-0150_RLatLon0.09_PT049H.grib2 2026-05-02 02:55 399K
20260502T00Z_MSC_RDPS_WindV_IsbL-0175_RLatLon0.09_PT049H.grib2 2026-05-02 02:55 327K
20260502T00Z_MSC_RDPS_WindV_IsbL-0200_RLatLon0.09_PT049H.grib2 2026-05-02 02:55 365K
20260502T00Z_MSC_RDPS_WindV_IsbL-0225_RLatLon0.09_PT049H.grib2 2026-05-02 02:55 371K
20260502T00Z_MSC_RDPS_WindV_IsbL-0250_RLatLon0.09_PT049H.grib2 2026-05-02 02:55 371K
20260502T00Z_MSC_RDPS_WindV_IsbL-0275_RLatLon0.09_PT049H.grib2 2026-05-02 02:55 382K
20260502T00Z_MSC_RDPS_WindV_IsbL-0300_RLatLon0.09_PT049H.grib2 2026-05-02 02:55 378K
20260502T00Z_MSC_RDPS_WindV_IsbL-0350_RLatLon0.09_PT049H.grib2 2026-05-02 02:55 360K
20260502T00Z_MSC_RDPS_WindV_IsbL-0400_RLatLon0.09_PT049H.grib2 2026-05-02 02:55 364K
20260502T00Z_MSC_RDPS_WindV_IsbL-0450_RLatLon0.09_PT049H.grib2 2026-05-02 02:55 365K
20260502T00Z_MSC_RDPS_WindV_IsbL-0500_RLatLon0.09_PT049H.grib2 2026-05-02 02:55 367K
20260502T00Z_MSC_RDPS_WindV_IsbL-0550_RLatLon0.09_PT049H.grib2 2026-05-02 02:55 472K
20260502T00Z_MSC_RDPS_WindV_IsbL-0600_RLatLon0.09_PT049H.grib2 2026-05-02 02:55 479K
20260502T00Z_MSC_RDPS_WindV_IsbL-0650_RLatLon0.09_PT049H.grib2 2026-05-02 02:55 495K
20260502T00Z_MSC_RDPS_WindV_IsbL-0700_RLatLon0.09_PT049H.grib2 2026-05-02 02:55 513K
20260502T00Z_MSC_RDPS_WindV_IsbL-0750_RLatLon0.09_PT049H.grib2 2026-05-02 02:55 537K
20260502T00Z_MSC_RDPS_WindV_IsbL-0800_RLatLon0.09_PT049H.grib2 2026-05-02 02:55 575K
20260502T00Z_MSC_RDPS_WindV_IsbL-0850_RLatLon0.09_PT049H.grib2 2026-05-02 02:55 625K
20260502T00Z_MSC_RDPS_WindV_IsbL-0875_RLatLon0.09_PT049H.grib2 2026-05-02 02:55 646K
20260502T00Z_MSC_RDPS_WindV_IsbL-0900_RLatLon0.09_PT049H.grib2 2026-05-02 02:55 655K
20260502T00Z_MSC_RDPS_WindV_IsbL-0925_RLatLon0.09_PT049H.grib2 2026-05-02 02:55 655K
20260502T00Z_MSC_RDPS_WindV_IsbL-0950_RLatLon0.09_PT049H.grib2 2026-05-02 02:55 654K
20260502T00Z_MSC_RDPS_WindV_IsbL-0970_RLatLon0.09_PT049H.grib2 2026-05-02 02:55 651K
20260502T00Z_MSC_RDPS_WindV_IsbL-0985_RLatLon0.09_PT049H.grib2 2026-05-02 02:55 647K
20260502T00Z_MSC_RDPS_WindV_IsbL-1000_RLatLon0.09_PT049H.grib2 2026-05-02 02:55 779K
20260502T00Z_MSC_RDPS_WindV_IsbL-1015_RLatLon0.09_PT049H.grib2 2026-05-02 02:55 771K